{"data":{"norad_id":55369,"epoch":"2026-05-24T23:28:17.915232Z","epoch_age_seconds":72964,"freshness":"FRESH","line1":"1 55369U 23013AQ  26144.97798513 -.00001553  00000+0 -46905-4 0  9996","line2":"2 55369  43.0022 250.4253 0001632 275.7199  84.3467 15.27581297183139","mean_motion":15.27581297,"eccentricity":0.0001632,"inclination_deg":43.0022,"raan_deg":250.4253,"arg_perigee_deg":275.7199,"mean_anomaly_deg":84.3467,"bstar":-4.6905e-5,"rev_number":18313,"period_min":94.266668676031,"perigee_km":481.92546742075,"apogee_km":484.16495729486,"semimajor_km":6861.1822123578,"source":"CELESTRAK","updated_at":"2026-05-25T13:38:17.767612Z"}}